This demonstration page uses our WeatherBlox Daily Observations layout. Learn more.

39.08367, -84.50855

Hourly Observations for January 18, 2019

Temp ( °F °C ) Dew Point ( °F °C ) Humidity (%) Winds ( mph kmh ) Pressure ( in mb ) Visibility ( mi km ) Precip ( " mm )
12:53 am 00:53 Cloudy 38 3.3 36 2.2 93 93 W 3 6 30.06 1018 10 16.09344 0 0
1:01 am 01:01 Cloudy 38 3.3 36 2.2 93 93 WSW 5 7 30.06 1018 10 16.09344 0 0
1:36 am 01:36 Cloudy 38 3.3 35 1.7 89 89 W 5 7 30.09 1019 10 16.09344 0 0
1:53 am 01:53 Cloudy 38 3.3 35 1.7 89 89 W 8 13 30.06 1018 10 16.09344 0 0
2:53 am 02:53 Cloudy 38 3.3 35 1.7 89 89 W 9 15 30.09 1019 10 16.09344 0 0
3:09 am 03:09 Cloudy 37 2.8 34 1.1 89 89 W 8 13 30.12 1020 10 16.09344 0 0
3:42 am 03:42 Cloudy 37 2.8 34 1.1 89 89 VRB 5 7 30.12 1020 10 16.09344 0 0
3:53 am 03:53 Cloudy 37 2.8 34 1.1 89 89 WNW 5 7 30.09 1019 10 16.09344 0 0
4:53 am 04:53 Cloudy 37 2.8 33 0.6 86 86 W 5 7 30.12 1020 9 14.484096 0 0
5:19 am 05:19 Cloudy 37 2.8 33 0.6 86 86 W 6 9 30.12 1020 9 14.484096 0 0
5:53 am 05:53 Cloudy 36 2.2 32 0 86 86 W 8 13 30.12 1020 10 16.09344 0 0
6:53 am 06:53 Cloudy 36 2.2 30 -1.1 79 79 WNW 8 13 30.12 1020 10 16.09344 0 0
7:53 am 07:53 Cloudy 36 2.2 30 -1.1 79 79 NW 7 11 30.15 1021 10 16.09344 0 0
8:53 am 08:53 Cloudy 36 2.2 30 -1.1 79 79 NW 7 11 30.18 1022 10 16.09344 0 0
9:53 am 09:53 Cloudy 36 2.2 30 -1.1 79 79 VRB 6 9 30.18 1022 10 16.09344 0 0
10:20 am 10:20 Cloudy 36 2.2 30 -1.1 79 79 WNW 5 7 30.18 1022 10 16.09344 0 0
10:33 am 10:33 Cloudy 36 2.2 30 -1.1 79 79 Calm 30.21 1023 10 16.09344 0 0
10:53 am 10:53 Cloudy 36 2.2 30 -1.1 79 79 Calm 30.21 1023 10 16.09344 0 0
11:53 am 11:53 Cloudy 36 2.2 30 -1.1 79 79 N 6 9 30.21 1023 10 16.09344 0 0
12:53 pm 12:53 Cloudy 37 2.8 31 -0.6 79 79 NW 5 7 30.18 1022 10 16.09344 0 0
1:53 pm 13:53 Cloudy 37 2.8 30 -1.1 76 76 Calm 30.15 1021 10 16.09344 0 0
2:53 pm 14:53 Cloudy 37 2.8 31 -0.6 79 79 Calm 30.15 1021 10 16.09344 0 0
3:53 pm 15:53 Cloudy 37 2.8 30 -1.1 76 76 NE 3 6 30.15 1021 10 16.09344 0 0
4:53 pm 16:53 Cloudy 37 2.8 30 -1.1 76 76 E 3 6 30.15 1021 10 16.09344 0 0
5:53 pm 17:53 Cloudy 36 2.2 30 -1.1 79 79 SE 5 7 30.15 1021 10 16.09344 0 0
6:53 pm 18:53 Cloudy 36 2.2 30 -1.1 79 79 SE 7 11 30.18 1022 10 16.09344 0 0
7:53 pm 19:53 Cloudy 36 2.2 30 -1.1 79 79 E 7 11 30.18 1022 10 16.09344 0 0
8:53 pm 20:53 Cloudy 36 2.2 30 -1.1 79 79 NE 8 13 30.15 1021 10 16.09344 0 0
9:53 pm 21:53 Cloudy 36 2.2 30 -1.1 79 79 E 5 7 30.12 1020 10 16.09344 0 0
10:53 pm 22:53 Cloudy 36 2.2 31 -0.6 82 82 NNE 3 6 30.12 1020 10 16.09344 0 0
11:53 pm 23:53 Cloudy 36 2.2 31 -0.6 82 82 ENE 6 9 30.09 1019 10 16.09344 0 0

Powered by AerisWeather